Accueil
METAR-TAF:

METAR-TAF

Aéroports :

Andora, Italie

Capo Mele

latitude: 43-57N, longitude: 008-10E, altitude: 220 m

Observation

Le bulletin a été fait il y a 52 minutes, à 00:55 UTC
Vent 5 kt de sud-ouest
Température 16°C
Humidité 94%
Pression 1027 hPa
Visibilité 10 km ou plus
pas de nuages en-dessous de 1500 mètres et pas de cumulonimbus.

METAR: LIMU 170055Z 23005KT CAVOK 16/15 Q1027 RMK SKC QUK / QUL / VIS MAR 20 KM VIS MIN 9999

Heure: 03:47 (01:47 UTC)


TAF: absent

Observations et prévisions météorologiques de plus de 4000 aéroports (messages METAR et TAF).

Les stations disponibles sont représentées par des disques jaunes et rouges sur la carte.

Passer la souris dessus pour voir le nom de la station.

Cliquer dessus pour voir les observations et prévisions météorologiques.

Pour changer de carte: cliquez sur les boutons verts avec une croix noire pour zoomer, sur le bouton vert avec un tiret pour effectuer un zoom arrière, ou sur les flèches vertes pour les cartes adjacentes.


METAR-TAF: